,,,PA_Meas_PMT16A,,PR_Meas_QMR101_102,,RH_Meas_QMH101,,SR_Meas_QMS101,,TA_Meas_QMH101,,GenWind,,GenWind,
date,time,status,PA,status,PR,status,RH,status,SR,status,TA,status,DirAvg,status,SpdAvg,
2010-06-18, 00:00:05,VALID,1001.26,VALID,0,VALID,89.4802,VALID,0,VALID,24.1696,VALID,119,VALID,0.945313,
2010-06-18, 00:01:05,VALID,1001.25,VALID,0,VALID,89.3047,VALID,0,VALID,24.1482,VALID,118,VALID,0.874219,
2010-06-18, 00:02:05,VALID,1001.25,VALID,0,VALID,89.114,VALID,0,VALID,24.1891,VALID,118,VALID,0.603516,
2010-06-18, 00:03:05,VALID,1001.23,VALID,0,VALID,88.9919,VALID,0,VALID,24.2086,VALID,118,VALID,0.484766,
2010-06-18, 00:04:05,VALID,1001.22,VALID,0,VALID,88.7859,VALID,0,VALID,24.1891,VALID,79,VALID,0.866797,
2010-06-18, 00:05:05,VALID,1001.21,VALID,0,VALID,87.3439,VALID,0,VALID,24.1891,VALID,60,VALID,0.807813,
2010-06-18, 00:06:05,VALID,1001.2,VALID,0,VALID,87.8322,VALID,0,VALID,24.2653,VALID,60,VALID,0.0625,
2010-06-18, 00:07:05,VALID,1001.19,VALID,0,VALID,88.3968,VALID,0,VALID,24.3257,VALID,108,VALID,0.532031,
2010-06-18, 00:08:05,VALID,1001.17,VALID,0,VALID,88.3129,VALID,0,VALID,24.3257,VALID,179,VALID,0.75625,
2010-06-18, 00:09:05,VALID,1001.17,VALID,0,VALID,88.5646,VALID,0,VALID,24.3452,VALID,146,VALID,1.18555,
2010-06-18, 00:10:05,VALID,1001.11,VALID,0,VALID,88.6028,VALID,0,VALID,24.3842,VALID,147,VALID,0.182812,
2010-06-18, 00:11:05,VALID,1001.11,VALID,0,VALID,88.5036,VALID,0,VALID,24.3433,VALID,147,VALID,0.0078125,
2010-06-18, 00:12:05,VALID,1001.11,VALID,0,VALID,88.4807,VALID,0,VALID,24.3842,VALID,147,VALID,0.521875,
2010-06-18, 00:13:05,VALID,1001.09,VALID,0,VALID,88.3357,VALID,0,VALID,24.3647,VALID,142,VALID,1.47266,
2010-06-18, 00:14:05,VALID,1001.07,VALID,0,VALID,88.1755,VALID,0,VALID,24.3842,VALID,151,VALID,0.778516,
2010-06-18, 00:15:05,VALID,1001.11,VALID,0,VALID,88.0534,VALID,0,VALID,24.3629,VALID,151,VALID,1.39453,
2010-06-18, 00:16:05,VALID,1001.11,VALID,0,VALID,88.1755,VALID,0,VALID,24.4037,VALID,157,VALID,1.16172,
2010-06-18, 00:17:05,VALID,1001.08,VALID,0,VALID,88.2594,VALID,0,VALID,24.4019,VALID,173,VALID,0.621094,
2010-06-18, 00:18:05,VALID,1001.07,VALID,0,VALID,88.2823,VALID,0,VALID,24.4037,VALID,172,VALID,0.645703,
2010-06-18, 00:19:05,VALID,1001.09,VALID,0,VALID,88.1526,VALID,0,VALID,24.4037,VALID,172,VALID,0.770312,
2010-06-18, 00:20:05,VALID,1001.08,VALID,0,VALID,87.7711,VALID,0,VALID,24.4233,VALID,173,VALID,0.697656,
2010-06-18, 00:21:05,VALID,1001.1,VALID,0,VALID,87.672,VALID,0,VALID,24.4409,VALID,168,VALID,0.707812,
2010-06-18, 00:22:05,VALID,1001.06,VALID,0,VALID,87.26,VALID,0,VALID,24.4818,VALID,161,VALID,0.972656,
2010-06-18, 00:23:05,VALID,1001.09,VALID,0,VALID,87.115,VALID,0,VALID,24.48,VALID,161,VALID,1.02109,
2010-06-18, 00:24:05,VALID,1001.11,VALID,0,VALID,87.0158,VALID,0,VALID,24.519,VALID,161,VALID,1.09648,
2010-06-18, 00:25:05,VALID,1001.11,VALID,0,VALID,86.6725,VALID,0,VALID,24.5775,VALID,160,VALID,1.14609,
2010-06-18, 00:26:05,VALID,1001.09,VALID,0,VALID,86.1308,VALID,0,VALID,24.638,VALID,162,VALID,1.30352,
2010-06-18, 00:27:05,VALID,1001.04,VALID,0,VALID,85.7798,VALID,0,VALID,24.677,VALID,170,VALID,0.787891,
2010-06-18, 00:28:05,VALID,1001.01,VALID,0,VALID,84.9558,VALID,0,VALID,24.716,VALID,170,VALID,1.12852,
2010-06-18, 00:29:05,VALID,1000.99,VALID,0,VALID,84.3607,VALID,0,VALID,24.8136,VALID,172,VALID,0.757813,
2010-06-18, 00:30:05,VALID,1000.99,VALID,0,VALID,84.025,VALID,0,VALID,24.8898,VALID,193,VALID,0.996875,
2010-06-18, 00:31:05,VALID,1000.96,VALID,0,VALID,83.1247,VALID,0,VALID,24.9893,VALID,197,VALID,1.06992,
2010-06-18, 00:32:05,VALID,1000.99,VALID,0,VALID,82.5983,VALID,0,VALID,25.0869,VALID,175,VALID,0.836328,
2010-06-18, 00:33:05,VALID,1000.98,VALID,0,VALID,82.0947,VALID,0,VALID,25.1436,VALID,163,VALID,1.06328,
2010-06-18, 00:34:05,VALID,1000.97,VALID,0,VALID,82.1863,VALID,0,VALID,25.204,VALID,155,VALID,1.19805,
2010-06-18, 00:35:05,VALID,1000.95,VALID,0,VALID,81.8506,VALID,0,VALID,25.1826,VALID,161,VALID,1.35859,
2010-06-18, 00:36:05,VALID,1000.94,VALID,0,VALID,81.9498,VALID,0,VALID,25.2236,VALID,162,VALID,1.04922,
2010-06-18, 00:37:05,VALID,1000.91,VALID,0,VALID,82.0718,VALID,0,VALID,25.1631,VALID,162,VALID,0.682031,
2010-06-18, 00:38:05,VALID,1000.92,VALID,0,VALID,82.1405,VALID,0,VALID,25.1436,VALID,169,VALID,0.858203,
2010-06-18, 00:39:05,VALID,1000.92,VALID,0,VALID,82.4533,VALID,0,VALID,25.1455,VALID,183,VALID,0.781641,
2010-06-18, 00:40:05,VALID,1000.9,VALID,0,VALID,83.5138,VALID,0,VALID,25.1455,VALID,278,VALID,0.712891,
2010-06-18, 00:41:05,VALID,1000.89,VALID,0,VALID,83.9563,VALID,0,VALID,25.046,VALID,261,VALID,0.776953,
2010-06-18, 00:42:05,VALID,1000.85,VALID,0,VALID,84.8719,VALID,0,VALID,24.9503,VALID,303,VALID,1.03047,
2010-06-18, 00:43:05,VALID,1000.87,VALID,0,VALID,85.7417,VALID,0,VALID,24.7922,VALID,306,VALID,0.674609,
2010-06-18, 00:44:05,VALID,1000.83,VALID,0,VALID,86.4665,VALID,0,VALID,24.6751,VALID,314,VALID,0.533984,
2010-06-18, 00:45:05,VALID,1000.82,VALID,0,VALID,87.0311,VALID,0,VALID,24.5989,VALID,314,VALID,0.614844,
2010-06-18, 00:46:05,VALID,1000.84,VALID,0,VALID,87.5575,VALID,0,VALID,24.4818,VALID,314,VALID,0.587109,
2010-06-18, 00:47:05,VALID,1000.79,VALID,0,VALID,87.9695,VALID,0,VALID,24.4037,VALID,330,VALID,0.763672,
2010-06-18, 00:48:05,VALID,1000.83,VALID,0,VALID,87.8551,VALID,0,VALID,24.3062,VALID,65,VALID,0.798047,
2010-06-18, 00:49:05,VALID,1000.83,VALID,0,VALID,88.4349,VALID,0,VALID,24.1696,VALID,69,VALID,0.889453,
2010-06-18, 00:50:05,VALID,1000.77,VALID,0,VALID,88.763,VALID,0,VALID,24.0915,VALID,76,VALID,0.95625,
2010-06-18, 00:51:05,VALID,1000.78,VALID,0,VALID,88.9461,VALID,0,VALID,24.0525,VALID,89,VALID,1.20195,
2010-06-18, 00:52:05,VALID,1000.76,VALID,0,VALID,88.9919,VALID,0,VALID,24.0116,VALID,90,VALID,1.28555,
2010-06-18, 00:53:05,VALID,1000.75,VALID,0,VALID,88.9385,VALID,0,VALID,24.0134,VALID,96,VALID,1.53125,
2010-06-18, 00:54:05,VALID,1000.74,VALID,0,VALID,89.2513,VALID,0,VALID,24.0525,VALID,98,VALID,1.16992,
2010-06-18, 00:55:05,VALID,1000.73,VALID,0,VALID,89.3734,VALID,0,VALID,24.0329,VALID,98,VALID,0.641016,
2010-06-18, 00:56:05,VALID,1000.71,VALID,0,VALID,89.4191,VALID,0,VALID,24.0134,VALID,98,VALID,0.603125,
2010-06-18, 00:57:05,VALID,1000.69,VALID,0,VALID,89.2284,VALID,0,VALID,23.9939,VALID,103,VALID,0.890234,
2010-06-18, 00:58:05,VALID,1000.7,VALID,0,VALID,89.32,VALID,0,VALID,23.9726,VALID,103,VALID,0.801172,
2010-06-18, 00:59:05,VALID,1000.69,VALID,0,VALID,88.8469,VALID,0,VALID,23.9939,VALID,113,VALID,0.303516,
2010-06-18, 01:00:05,VALID,1000.7,VALID,0,VALID,88.2518,VALID,0,VALID,24.0134,VALID,119,VALID,0.505078,
2010-06-18, 01:01:05,VALID,1000.69,VALID,0,VALID,84.231,VALID,0,VALID,24.0134,VALID,160,VALID,1.60352,
2010-06-18, 01:02:05,VALID,1000.69,VALID,0,VALID,82.1405,VALID,0,VALID,24.2476,VALID,160,VALID,1.45117,
2010-06-18, 01:03:05,VALID,1000.67,VALID,0,VALID,81.141,VALID,0,VALID,24.4214,VALID,155,VALID,1.18711,
2010-06-18, 01:04:05,VALID,1000.66,VALID,0,VALID,80.8587,VALID,0,VALID,24.5794,VALID,143,VALID,0.874609,
2010-06-18, 01:05:05,VALID,1000.66,VALID,0,VALID,80.0347,VALID,0,VALID,24.6575,VALID,157,VALID,1.40273,
2010-06-18, 01:06:05,VALID,1000.66,VALID,0,VALID,78.4172,VALID,0,VALID,24.7941,VALID,170,VALID,2.05977,
2010-06-18, 01:07:05,VALID,1000.67,VALID,0,VALID,77.7001,VALID,0,VALID,25.0284,VALID,171,VALID,1.88594,
2010-06-18, 01:08:05,VALID,1000.63,VALID,0,VALID,76.7616,VALID,0,VALID,25.1436,VALID,168,VALID,2.13516,
2010-06-18, 01:09:05,VALID,1000.63,VALID,0,VALID,75.9681,VALID,0,VALID,25.3017,VALID,168,VALID,2.28008,
2010-06-18, 01:10:05,VALID,1000.61,VALID,0,VALID,75.7392,VALID,0,VALID,25.3993,VALID,172,VALID,1.95508,
2010-06-18, 01:11:05,VALID,1000.61,VALID,0,VALID,75.6248,VALID,0,VALID,25.4559,VALID,167,VALID,1.87148,
2010-06-18, 01:12:05,VALID,1000.58,VALID,0,VALID,75.3883,VALID,0,VALID,25.4949,VALID,167,VALID,1.98867,
2010-06-18, 01:13:05,VALID,1000.56,VALID,0,VALID,74.8313,VALID,0,VALID,25.5535,VALID,160,VALID,1.94336,
2010-06-18, 01:14:05,VALID,1000.56,VALID,0,VALID,74.2438,VALID,0,VALID,25.614,VALID,161,VALID,2.14258,
2010-06-18, 01:15:05,VALID,1000.58,VALID,0,VALID,73.2138,VALID,0,VALID,25.7116,VALID,173,VALID,2.44727,
2010-06-18, 01:16:05,VALID,1000.58,VALID,0,VALID,72.8781,VALID,0,VALID,25.8288,VALID,172,VALID,2.2625,
2010-06-18, 01:17:05,VALID,1000.55,VALID,0,VALID,73.1528,VALID,0,VALID,25.9049,VALID,172,VALID,2.21602,
2010-06-18, 01:18:05,VALID,1000.54,VALID,0,VALID,73.0078,VALID,0,VALID,25.9655,VALID,170,VALID,2.22187,
2010-06-18, 01:19:05,VALID,1000.52,VALID,0,VALID,73.7174,VALID,0,VALID,25.946,VALID,173,VALID,1.63086,
2010-06-18, 01:20:05,VALID,1000.51,VALID,0,VALID,73.7861,VALID,0,VALID,25.9069,VALID,171,VALID,1.73086,
2010-06-18, 01:21:05,VALID,1000.47,VALID,0,VALID,73.2596,VALID,0,VALID,25.8679,VALID,168,VALID,2.02852,
2010-06-18, 01:22:05,VALID,1000.46,VALID,0,VALID,73.4275,VALID,0,VALID,25.9069,VALID,171,VALID,1.81758,
2010-06-18, 01:23:05,VALID,1000.47,VALID,0,VALID,74.0684,VALID,0,VALID,25.8464,VALID,168,VALID,1.78945,
2010-06-18, 01:24:05,VALID,1000.45,VALID,0,VALID,74.4422,VALID,0,VALID,25.7897,VALID,168,VALID,1.74688,
2010-06-18, 01:25:05,VALID,1000.43,VALID,0,VALID,75.3578,VALID,0,VALID,25.6511,VALID,158,VALID,1.59492,
2010-06-18, 01:26:05,VALID,1000.42,VALID,0,VALID,76.3344,VALID,0,VALID,25.5945,VALID,153,VALID,1.23672,
2010-06-18, 01:27:05,VALID,1000.38,VALID,0,VALID,75.9681,VALID,0,VALID,25.4364,VALID,160,VALID,1.36875,
2010-06-18, 01:28:05,VALID,1000.43,VALID,0,VALID,75.4035,VALID,0,VALID,25.4188,VALID,165,VALID,1.75625,
2010-06-18, 01:29:05,VALID,1000.38,VALID,0,VALID,75.3883,VALID,0,VALID,25.4969,VALID,168,VALID,1.71328,
2010-06-18, 01:30:05,VALID,1000.38,VALID,0,VALID,74.9076,VALID,0,VALID,25.5555,VALID,173,VALID,1.52734,
2010-06-18, 01:31:05,VALID,1000.35,VALID,0,VALID,75.0755,VALID,0,VALID,25.614,VALID,171,VALID,1.3543,
2010-06-18, 01:32:05,VALID,1000.37,VALID,0,VALID,74.6863,VALID,0,VALID,25.6316,VALID,174,VALID,1.37734,
2010-06-18, 01:33:05,VALID,1000.33,VALID,0,VALID,74.0684,VALID,0,VALID,25.7116,VALID,176,VALID,1.8125,
2010-06-18, 01:34:05,VALID,1000.35,VALID,0,VALID,74.2362,VALID,0,VALID,25.7097,VALID,176,VALID,1.76016,
2010-06-18, 01:35:05,VALID,1000.35,VALID,0,VALID,74.6863,VALID,0,VALID,25.7507,VALID,170,VALID,1.42461,
2010-06-18, 01:36:05,VALID,1000.35,VALID,0,VALID,74.6787,VALID,0,VALID,25.7487,VALID,166,VALID,1.61328,
2010-06-18, 01:37:05,VALID,1000.37,VALID,0,VALID,74.6024,VALID,0,VALID,25.7097,VALID,165,VALID,2.05117,
2010-06-18, 01:38:05,VALID,1000.3,VALID,0,VALID,74.8466,VALID,0,VALID,25.6511,VALID,162,VALID,1.9957,
2010-06-18, 01:39:05,VALID,1000.31,VALID,0,VALID,75.1518,VALID,0,VALID,25.575,VALID,161,VALID,2.00977,
2010-06-18, 01:40:05,VALID,1000.34,VALID,0,VALID,75.3959,VALID,0,VALID,25.4949,VALID,165,VALID,2.01836,
2010-06-18, 01:41:05,VALID,1000.32,VALID,0,VALID,76.0597,VALID,0,VALID,25.4774,VALID,173,VALID,1.45898,
2010-06-18, 01:42:05,VALID,1000.31,VALID,0,VALID,76.0063,VALID,0,VALID,25.4383,VALID,176,VALID,1.52813,
2010-06-18, 01:43:05,VALID,1000.31,VALID,0,VALID,75.8766,VALID,0,VALID,25.4383,VALID,190,VALID,1.44766,
2010-06-18, 01:44:05,VALID,1000.3,VALID,0,VALID,74.8466,VALID,0,VALID,25.5164,VALID,197,VALID,1.47656,
2010-06-18, 01:45:05,VALID,1000.33,VALID,0,VALID,74.694,VALID,0,VALID,25.6336,VALID,191,VALID,1.5168,
2010-06-18, 01:46:05,VALID,1000.32,VALID,0,VALID,74.5338,VALID,0,VALID,25.7116,VALID,189,VALID,1.43086,
2010-06-18, 01:47:05,VALID,1000.35,VALID,0,VALID,73.4885,VALID,0,VALID,25.7507,VALID,196,VALID,1.48672,
2010-06-18, 01:48:05,VALID,1000.31,VALID,0,VALID,73.7403,VALID,0,VALID,25.8288,VALID,192,VALID,2.14727,
2010-06-18, 01:49:05,VALID,1000.3,VALID,0,VALID,72.8171,VALID,0.112286,VALID,25.8854,VALID,178,VALID,1.72031,
2010-06-18, 01:50:05,VALID,1000.28,VALID,0,VALID,72.4204,VALID,0.112286,VALID,25.983,VALID,201,VALID,1.07852,
2010-06-18, 01:51:05,VALID,1000.26,VALID,0,VALID,71.9397,VALID,0.112286,VALID,25.983,VALID,206,VALID,1.68438,
2010-06-18, 01:52:05,VALID,1000.3,VALID,0,VALID,72.0007,VALID,0.112286,VALID,26.0416,VALID,235,VALID,0.910156,
2010-06-18, 01:53:05,VALID,1000.3,VALID,0,VALID,73.9615,VALID,0,VALID,26.0201,VALID,266,VALID,0.767578,
2010-06-18, 01:54:05,VALID,1000.3,VALID,0,VALID,73.8776,VALID,0,VALID,25.8834,VALID,234,VALID,0.609766,
2010-06-18, 01:55:05,VALID,1000.29,VALID,0,VALID,75.6782,VALID,0,VALID,25.7878,VALID,270,VALID,0.558594,
2010-06-18, 01:56:05,VALID,1000.29,VALID,0,VALID,76.6548,VALID,0.112286,VALID,25.5516,VALID,271,VALID,0.524609,
2010-06-18, 01:57:05,VALID,1000.26,VALID,0,VALID,78.5393,VALID,0,VALID,25.3564,VALID,282,VALID,0.799609,
2010-06-18, 01:58:05,VALID,1000.27,VALID,0,VALID,78.9971,VALID,0,VALID,25.1417,VALID,283,VALID,0.639844,
2010-06-18, 01:59:05,VALID,1000.27,VALID,0,VALID,81.408,VALID,0,VALID,25.0265,VALID,283,VALID,0.402734,
2010-06-18, 02:00:05,VALID,1000.24,VALID,0,VALID,82.438,VALID,0.112286,VALID,24.8703,VALID,283,VALID,0.3375,
2010-06-18, 02:01:05,VALID,1000.26,VALID,0,VALID,83.262,VALID,0,VALID,24.7337,VALID,283,VALID,0.330078,
2010-06-18, 02:02:05,VALID,1000.26,VALID,0,VALID,83.9869,VALID,0,VALID,24.5971,VALID,311,VALID,0.599219,
2010-06-18, 02:03:05,VALID,1000.26,VALID,0,VALID,85.1542,VALID,0.112286,VALID,24.4019,VALID,336,VALID,0.801953,
2010-06-18, 02:04:05,VALID,1000.25,VALID,0,VALID,86.1232,VALID,0,VALID,24.1482,VALID,54,VALID,1.19648,
2010-06-18, 02:05:05,VALID,1000.26,VALID,0,VALID,86.3673,VALID,0,VALID,23.9744,VALID,61,VALID,1.30469,
2010-06-18, 02:06:05,VALID,1000.28,VALID,0,VALID,86.6496,VALID,0,VALID,23.8573,VALID,49,VALID,1.33008,
2010-06-18, 02:07:05,VALID,1000.24,VALID,0,VALID,86.848,VALID,0,VALID,23.7597,VALID,34,VALID,1.38789,
2010-06-18, 02:08:05,VALID,1000.23,VALID,0,VALID,87.7025,VALID,0,VALID,23.7207,VALID,25,VALID,1.22344,
2010-06-18, 02:09:05,VALID,1000.23,VALID,0,VALID,87.9695,VALID,0,VALID,23.6409,VALID,25,VALID,0.833203,
2010-06-18, 02:10:05,VALID,1000.24,VALID,0,VALID,88.2671,VALID,0,VALID,23.5628,VALID,29,VALID,0.604297,
2010-06-18, 02:11:05,VALID,1000.23,VALID,0,VALID,88.6333,VALID,0,VALID,23.5061,VALID,32,VALID,0.729688,
2010-06-18, 02:12:05,VALID,1000.23,VALID,0,VALID,88.9843,VALID,0,VALID,23.4671,VALID,42,VALID,0.808984,
2010-06-18, 02:13:05,VALID,1000.25,VALID,0,VALID,89.5412,VALID,0,VALID,23.4085,VALID,66,VALID,0.926953,
2010-06-18, 02:14:04,VALID,1000.22,VALID,0,VALID,90.1363,VALID,0,VALID,23.389,VALID,63,VALID,1.03555,
2010-06-18, 02:15:04,VALID,1000.26,VALID,0,VALID,90.35,VALID,0,VALID,23.3287,VALID,63,VALID,0.821484,
2010-06-18, 02:16:04,VALID,1000.27,VALID,0,VALID,90.556,VALID,0,VALID,23.3305,VALID,72,VALID,0.985547,
2010-06-18, 02:17:04,VALID,1000.26,VALID,0,VALID,90.7543,VALID,0,VALID,23.3305,VALID,67,VALID,0.948047,
2010-06-18, 02:18:04,VALID,1000.25,VALID,0,VALID,90.8688,VALID,0,VALID,23.3305,VALID,63,VALID,1.21094,
2010-06-18, 02:19:04,VALID,1000.21,VALID,0,VALID,90.678,VALID,0,VALID,23.2915,VALID,62,VALID,1.11758,
2010-06-18, 02:20:04,VALID,1000.21,VALID,0,VALID,90.6399,VALID,0,VALID,23.311,VALID,77,VALID,0.865625,
2010-06-18, 02:21:04,VALID,1000.21,VALID,0,VALID,90.6628,VALID,0,VALID,23.2915,VALID,77,VALID,0.605078,
2010-06-18, 02:22:04,VALID,1000.21,VALID,0,VALID,90.6246,VALID,0,VALID,23.2719,VALID,77,VALID,0.386719,
2010-06-18, 02:23:04,VALID,1000.17,VALID,0,VALID,90.6628,VALID,0,VALID,23.2719,VALID,77,VALID,0.332422,
2010-06-18, 02:24:04,VALID,1000.15,VALID,0,VALID,90.7009,VALID,0,VALID,23.2524,VALID,77,VALID,0.309766,
2010-06-18, 02:25:04,VALID,1000.11,VALID,0,VALID,90.7085,VALID,0,VALID,23.2524,VALID,77,VALID,0.285937,
2010-06-18, 02:26:04,VALID,1000.07,VALID,0,VALID,90.7009,VALID,0,VALID,23.2329,VALID,77,VALID,0.290234,
2010-06-18, 02:27:04,VALID,1000.04,VALID,0,VALID,90.8306,VALID,0,VALID,23.1921,VALID,77,VALID,0.176953,
2010-06-18, 02:28:04,VALID,1000.08,VALID,0,VALID,90.8688,VALID,0,VALID,23.2134,VALID,77,VALID,0.0453125,
2010-06-18, 02:29:04,VALID,1000.07,VALID,0,VALID,90.8917,VALID,0,VALID,23.1939,VALID,77,VALID,0.266797,
2010-06-18, 02:30:04,VALID,1000.04,VALID,0,VALID,90.9603,VALID,0,VALID,23.1726,VALID,71,VALID,0.609766,
2010-06-18, 02:31:04,VALID,1000.05,VALID,0,VALID,91.0519,VALID,0,VALID,23.1744,VALID,41,VALID,0.662109,
2010-06-18, 02:32:04,VALID,1000.08,VALID,0,VALID,91.2655,VALID,0,VALID,23.1744,VALID,41,VALID,0.614844,
2010-06-18, 02:33:04,VALID,1000.07,VALID,0,VALID,91.4257,VALID,0,VALID,23.1744,VALID,41,VALID,0.574219,
2010-06-18, 02:34:04,VALID,1000.08,VALID,0,VALID,91.4944,VALID,0,VALID,23.1726,VALID,41,VALID,0.53125,
2010-06-18, 02:35:04,VALID,1000.09,VALID,0,VALID,91.3647,VALID,0,VALID,23.1744,VALID,41,VALID,0.415625,
2010-06-18, 02:36:04,VALID,1000.08,VALID,0,VALID,91.4791,VALID,0,VALID,23.1939,VALID,41,VALID,0.463672,
2010-06-18, 02:37:04,VALID,1000.09,VALID,0,VALID,91.4486,VALID,0,VALID,23.1726,VALID,41,VALID,0.611719,
2010-06-18, 02:38:04,VALID,1000.09,VALID,0,VALID,91.4944,VALID,0,VALID,23.1939,VALID,41,VALID,0.626172,
2010-06-18, 02:39:04,VALID,1000.11,VALID,0,VALID,91.6012,VALID,0,VALID,23.1921,VALID,41,VALID,0.488281,
2010-06-18, 02:40:04,VALID,1000.13,VALID,0,VALID,91.7309,VALID,0,VALID,23.2134,VALID,41,VALID,0.455859,
2010-06-18, 02:41:04,VALID,1000.13,VALID,0,VALID,91.647,VALID,0,VALID,23.2134,VALID,41,VALID,0.626953,
2010-06-18, 02:42:04,VALID,1000.13,VALID,0,VALID,91.8454,VALID,0,VALID,23.1921,VALID,25,VALID,0.742188,
2010-06-18, 02:43:04,VALID,1000.13,VALID,0,VALID,91.8606,VALID,0,VALID,23.2329,VALID,25,VALID,0.816797,
2010-06-18, 02:44:04,VALID,1000.14,VALID,0,VALID,91.792,VALID,0,VALID,23.2134,VALID,25,VALID,1.01133,
2010-06-18, 02:45:04,VALID,1000.16,VALID,0,VALID,91.586,VALID,0,VALID,23.2134,VALID,25,VALID,1.12891,
2010-06-18, 02:46:04,VALID,1000.18,VALID,0,VALID,91.4257,VALID,0,VALID,23.1939,VALID,25,VALID,0.94375,
2010-06-18, 02:47:04,VALID,1000.21,VALID,0,VALID,91.4486,VALID,0,VALID,23.1939,VALID,14,VALID,0.764063,
2010-06-18, 02:48:04,VALID,1000.2,VALID,0,VALID,91.3418,VALID,0,VALID,23.2134,VALID,14,VALID,0.699609,
2010-06-18, 02:49:04,VALID,1000.18,VALID,0,VALID,91.2808,VALID,0,VALID,23.2134,VALID,14,VALID,0.760156,
2010-06-18, 02:50:04,VALID,1000.19,VALID,0,VALID,91.1968,VALID,0,VALID,23.2134,VALID,14,VALID,0.375781,
2010-06-18, 02:51:04,VALID,1000.18,VALID,0,VALID,91.2045,VALID,0,VALID,23.2329,VALID,14,VALID,0.465234,
2010-06-18, 02:52:04,VALID,1000.18,VALID,0,VALID,91.0748,VALID,0,VALID,23.2329,VALID,14,VALID,0.759766,
2010-06-18, 02:53:04,VALID,1000.21,VALID,0,VALID,90.9527,VALID,0,VALID,23.2329,VALID,14,VALID,0.849219,
2010-06-18, 02:54:04,VALID,1000.21,VALID,0,VALID,90.823,VALID,0,VALID,23.2329,VALID,13,VALID,0.779688,
2010-06-18, 02:55:04,VALID,1000.22,VALID,0,VALID,90.8688,VALID,0,VALID,23.1939,VALID,353,VALID,0.65625,
2010-06-18, 02:56:04,VALID,1000.22,VALID,0,VALID,90.968,VALID,0,VALID,23.1939,VALID,353,VALID,0.533203,
2010-06-18, 02:57:04,VALID,1000.23,VALID,0,VALID,91.1587,VALID,0,VALID,23.1744,VALID,353,VALID,0.666406,
2010-06-18, 02:58:04,VALID,1000.23,VALID,0,VALID,91.2503,VALID,0,VALID,23.1531,VALID,353,VALID,0.726563,
2010-06-18, 02:59:04,VALID,1000.22,VALID,0,VALID,91.3037,VALID,0,VALID,23.1354,VALID,353,VALID,0.755469,
2010-06-18, 03:00:04,VALID,1000.28,VALID,0,VALID,91.3723,VALID,0,VALID,23.1141,VALID,353,VALID,0.669922,
2010-06-18, 03:01:04,VALID,1000.28,VALID,0,VALID,91.4105,VALID,0,VALID,23.0964,VALID,353,VALID,0.542188,
2010-06-18, 03:02:04,VALID,1000.27,VALID,0,VALID,91.502,VALID,0,VALID,23.0964,VALID,353,VALID,0.482812,
2010-06-18, 03:03:04,VALID,1000.25,VALID,0,VALID,91.5097,VALID,0,VALID,23.0573,VALID,353,VALID,0.374609,
2010-06-18, 03:04:04,VALID,1000.27,VALID,0,VALID,91.6928,VALID,0,VALID,23.0573,VALID,353,VALID,0.373047,
2010-06-18, 03:05:04,VALID,1000.27,VALID,0,VALID,91.708,VALID,0,VALID,23.0591,VALID,353,VALID,0.425391,
2010-06-18, 03:06:04,VALID,1000.27,VALID,0,VALID,91.7691,VALID,0,VALID,23.0378,VALID,353,VALID,0.379687,
2010-06-18, 03:07:04,VALID,1000.26,VALID,0,VALID,91.7843,VALID,0,VALID,23.0378,VALID,353,VALID,0.366406,
2010-06-18, 03:08:04,VALID,1000.26,VALID,0,VALID,91.7691,VALID,0,VALID,23.0378,VALID,353,VALID,0.442578,
2010-06-18, 03:09:04,VALID,1000.27,VALID,0,VALID,91.7691,VALID,0,VALID,23.0573,VALID,282,VALID,0.549219,
2010-06-18, 03:10:04,VALID,1000.27,VALID,0,VALID,91.7538,VALID,0,VALID,23.0769,VALID,280,VALID,0.843359,
2010-06-18, 03:11:04,VALID,1000.25,VALID,0,VALID,91.6165,VALID,0,VALID,23.1159,VALID,275,VALID,0.941797,
2010-06-18, 03:12:04,VALID,1000.25,VALID,0,VALID,91.4791,VALID,0,VALID,23.1159,VALID,273,VALID,0.857422,
2010-06-18, 03:13:04,VALID,1000.23,VALID,0,VALID,91.3647,VALID,0,VALID,23.1549,VALID,273,VALID,0.707031,
2010-06-18, 03:14:04,VALID,1000.19,VALID,0,VALID,91.2731,VALID,0,VALID,23.1744,VALID,284,VALID,0.709375,
2010-06-18, 03:15:04,VALID,1000.18,VALID,0,VALID,91.1663,VALID,0,VALID,23.1549,VALID,284,VALID,0.500391,
2010-06-18, 03:16:04,VALID,1000.17,VALID,0,VALID,91.1282,VALID,0,VALID,23.1354,VALID,284,VALID,0.200781,
2010-06-18, 03:17:04,VALID,1000.19,VALID,0,VALID,91.1206,VALID,0,VALID,23.1159,VALID,284,VALID,0.155078,
2010-06-18, 03:18:04,VALID,1000.21,VALID,0,VALID,91.1129,VALID,0,VALID,23.1159,VALID,284,VALID,0,
2010-06-18, 03:19:04,VALID,1000.2,VALID,0,VALID,91.1511,VALID,0,VALID,23.0964,VALID,284,VALID,0.101172,
2010-06-18, 03:20:04,VALID,1000.18,VALID,0,VALID,90.9069,VALID,0,VALID,23.0573,VALID,284,VALID,0.35,
2010-06-18, 03:21:04,VALID,1000.2,VALID,0,VALID,91.1434,VALID,0,VALID,23.0183,VALID,284,VALID,0.14375,
2010-06-18, 03:22:04,VALID,1000.18,VALID,0,VALID,91.3037,VALID,0,VALID,22.9988,VALID,284,VALID,0.135156,
2010-06-18, 03:23:04,VALID,1000.18,VALID,0,VALID,91.1892,VALID,0,VALID,22.9598,VALID,284,VALID,0.446094,
2010-06-18, 03:24:04,VALID,1000.16,VALID,0,VALID,91.6317,VALID,0.112286,VALID,22.9385,VALID,43,VALID,0.775781,
2010-06-18, 03:25:04,VALID,1000.17,VALID,0,VALID,91.441,VALID,0,VALID,22.9793,VALID,43,VALID,0.949219,
2010-06-18, 03:26:04,VALID,1000.19,VALID,0,VALID,90.8459,VALID,0,VALID,23.0183,VALID,68,VALID,1.13164,
2010-06-18, 03:27:04,VALID,1000.17,VALID,0,VALID,90.6704,VALID,0,VALID,23.0183,VALID,70,VALID,1.20742,
2010-06-18, 03:28:04,VALID,1000.17,VALID,0,VALID,90.6399,VALID,0,VALID,23.0183,VALID,70,VALID,1.20273,
2010-06-18, 03:29:04,VALID,1000.15,VALID,0,VALID,90.5483,VALID,0,VALID,22.9581,VALID,77,VALID,1.22578,
2010-06-18, 03:30:04,VALID,1000.19,VALID,0,VALID,90.6551,VALID,0.112286,VALID,22.9793,VALID,93,VALID,1.26016,
2010-06-18, 03:31:04,VALID,1000.19,VALID,0,VALID,90.968,VALID,0,VALID,22.9598,VALID,98,VALID,1.00195,
2010-06-18, 03:32:04,VALID,1000.18,VALID,0,VALID,91.1816,VALID,0,VALID,22.9403,VALID,98,VALID,0.871484,
2010-06-18, 03:33:04,VALID,1000.19,VALID,0,VALID,91.1358,VALID,0,VALID,22.9403,VALID,98,VALID,0.487109,
2010-06-18, 03:34:04,VALID,1000.17,VALID,0,VALID,91.2503,VALID,0,VALID,22.9013,VALID,98,VALID,0.698438,
2010-06-18, 03:35:04,VALID,1000.18,VALID,0,VALID,91.3418,VALID,0,VALID,22.8818,VALID,98,VALID,0.657031,
2010-06-18, 03:36:04,VALID,1000.14,VALID,0,VALID,91.3342,VALID,0,VALID,22.8623,VALID,98,VALID,0.506641,
2010-06-18, 03:37:04,VALID,1000.19,VALID,0,VALID,91.4944,VALID,0,VALID,22.8427,VALID,98,VALID,0.805859,
2010-06-18, 03:38:04,VALID,1000.16,VALID,0,VALID,91.7004,VALID,0,VALID,22.8427,VALID,91,VALID,0.917578,
2010-06-18, 03:39:04,VALID,1000.19,VALID,0,VALID,91.7309,VALID,0,VALID,22.8232,VALID,74,VALID,1.14258,
2010-06-18, 03:40:04,VALID,1000.21,VALID,0,VALID,91.6088,VALID,0,VALID,22.8215,VALID,69,VALID,1.10547,
2010-06-18, 03:41:04,VALID,1000.23,VALID,0,VALID,91.5326,VALID,0,VALID,22.8623,VALID,72,VALID,0.967578,
2010-06-18, 03:42:04,VALID,1000.24,VALID,0,VALID,91.5173,VALID,0,VALID,22.8623,VALID,74,VALID,0.939453,
2010-06-18, 03:43:04,VALID,1000.25,VALID,0,VALID,91.3952,VALID,0,VALID,22.8623,VALID,57,VALID,0.791406,
2010-06-18, 03:44:04,VALID,1000.28,VALID,0,VALID,91.2808,VALID,0,VALID,22.8623,VALID,53,VALID,0.6875,
2010-06-18, 03:45:04,VALID,1000.29,VALID,0,VALID,91.0214,VALID,0,VALID,22.8232,VALID,9,VALID,0.826953,